TIME,DELAY(SENSOR),PRES,OXYGEN,RAWTEMP,T(OPTODE),TCPHASE,FLUOR,BETA(BETA700),BETA(BETA412),BETA(BETA440),CDOM,C(CSC),ED(ED412.20),ED(ED444.00),ED(ED489.60),ED(ED554.30),LU(LU412.10),LU(LU443.90),LU(LU489.70),LU(LU554.70),COMP,TILTX,TILTY,CHECK
1353381635,5807,899.8499755859375000,32.2061805725097660,560.3300781250000000,4.4756660461425780,56.7332992553710940,55,99,100,78,82,15559,0,0,0,0,2147121892,2147776749,2147575195,2147569828,1364,3,13,55861
1353385231,5810,969.1500244140625000,37.7253608703613300,564.1102294921875000,4.3584442138671875,55.9002799987793000,54,98,99,79,82,15547,0,0,0,0,2147124406,2147771163,2147574418,2147568137,2867,3,13,29468
1353388831,5812,975.2600097656250000,38.7128181457519500,565.3964843750000000,4.3185272216796875,55.7597084045410160,56,97,100,77,83,15553,0,0,0,0,2147127113,2147774491,2147573019,2147568109,18,3,13,16588
1353392431,5809,973.7299804687500000,40.8875999450683600,566.1845703125000000,4.2940640449523930,55.4434509277343750,55,99,100,78,81,15548,0,0,0,0,2147124644,2147773842,2147570294,2147568914,62,3,13,48561
1353396031,5809,982.3300170898438000,41.3078804016113300,568.4185791015625000,4.2246928215026855,55.4025993347168000,55,98,100,78,83,15552,0,0,0,0,2147121901,2147775762,2147571273,2147568777,3157,3,13,44235
1353399631,5808,976.8200073242188000,41.4968795776367200,568.5927124023438000,4.2192859649658200,55.3801002502441400,56,99,101,77,83,15551,0,0,0,0,2147125074,2147776009,2147572022,2147567341,122,3,13,44017
1353403231,5811,980.0999755859375000,39.2326507568359400,569.4066772460938000,4.1939959526062010,55.7270507812500000,55,99,100,78,81,15550,0,0,0,0,2147123382,2147776704,2147568155,2147568713,45,3,13,16270
1353406831,5808,978.8699951171875000,38.5378112792968750,569.3632202148438000,4.1953468322753910,55.8291511535644500,56,97,100,78,83,15549,0,0,0,0,2147122349,2147774674,2147566336,2147570212,170,3,13,61056
1353410431,5809,984.0999755859375000,38.6443710327148440,569.1890258789062000,4.2007617950439450,55.8122596740722660,55,100,99,78,84,15549,0,0,0,0,2147124324,2147777691,2147570870,2147569024,3504,3,13,24544
1353414031,5807,988.1300048828125000,39.7373390197753900,568.6522827148438000,4.2174320220947270,55.6437606811523440,55,99,100,77,81,15549,0,0,0,0,2147120795,2147776301,2147571264,2147572333,3575,3,13,58457
1353417631,5809,988.8400268554688000,40.8958396911621100,568.6312866210938000,4.2180838584899900,55.4700584411621100,54,102,101,78,82,15530,0,0,0,0,2147125430,2147777846,2147569280,2147568457,3583,3,13,4858
1353421231,5810,988.9400024414062000,40.9171905517578100,568.3952026367188000,4.2254199981689450,55.4600105285644500,55,99,100,78,81,15538,0,0,0,0,2147124150,2147778605,2147572800,2147570898,12,3,13,27284
1353424831,5807,984.3800048828125000,41.0025291442871100,568.6403198242188000,4.2178077697753910,55.4535293579101560,54,103,100,78,84,15543,0,0,0,0,2147121033,2147778130,2147570157,2147569517,319,3,13,48039
1353428431,5811,987.2000122070312000,40.2514495849609400,569.2332763671875000,4.1993827819824220,55.5702781677246100,55,99,101,78,82,15539,0,0,0,0,2147122377,2147778605,2147569627,2147566226,268,3,13,27793
1353432031,5809,1000.5900268554688000,40.8563499450683600,568.1383056640625000,4.2333998680114750,55.4675102233886700,55,99,101,78,83,15539,0,0,0,0,2147122112,2147777746,2147565988,2147570038,61,3,13,29013
1353435631,5812,995.9299926757812000,40.5893898010253900,568.5880737304688000,4.2194271087646480,55.5097389221191400,55,100,101,78,82,15537,0,0,0,0,2147123611,2147768155,2147570898,2147567872,3510,3,13,40065
1353439231,5812,997.9799804687500000,41.0067596435546900,568.6060180664062000,4.2188739776611330,55.4492416381835940,54,100,100,77,83,15539,0,0,0,0,2147123574,2147775085,2147570395,2147567762,3520,3,13,62840
1353442831,5808,998.3099975585938000,40.6395988464355500,568.5386962890625000,4.2209630012512210,55.5071792602539060,55,116,101,80,82,15536,0,0,0,0,2147125504,2147776932,2147574857,2147568658,128,3,13,40836
1353446431,5810,999.3499755859375000,40.6909408569335940,568.5875244140625000,4.2194480895996090,55.4958610534668000,56,196,100,78,83,15537,0,0,0,0,2147123611,2147774747,2147572544,2147568676,68,3,13,28774
1353450031,5812,995.7899780273438000,40.4275703430175800,568.5861206054688000,4.2194919586181640,55.5398902893066400,55,98,100,79,81,15538,0,0,0,0,2147122121,2147776283,2147573147,2147567442,900,3,13,1783
1353453631,5812,1001.2500000000000000,40.9433403015136700,568.5751953125000000,4.2198300361633300,55.4622917175293000,55,99,100,78,82,15540,0,0,0,0,2147125165,2147772644,2147575963,2147567844,442,3,13,29497
1353457231,5808,995.8800048828125000,40.6507492065429700,568.5682983398438000,4.2200431823730470,55.5082015991210940,55,100,100,78,83,15538,0,0,0,0,2147123721,2147767012,2147574601,2147567113,671,3,13,55743
1353460831,5808,997.9899902343750000,40.4835586547851560,568.5969848632812000,4.2191519737243650,55.5310401916503900,55,98,102,79,81,15537,0,0,0,0,2147123958,2147769426,2147570230,2147569444,277,3,13,872
1353464431,5810,988.2899780273438000,39.2218894958496100,568.5996704101562000,4.2190670967102050,55.7170715332031250,54,97,98,78,83,15538,0,0,0,0,2147123200,2147775899,2147574354,2147567067,689,3,13,61765
1353468031,5810,991.8300170898438000,38.1590309143066400,568.8071899414062000,4.2126221656799320,55.8776702880859400,56,99,100,77,84,15538,0,0,0,0,2147122267,2147767789,2147571145,2147567186,3459,2,13,62207
1353471631,5810,996.6500244140625000,38.2644996643066400,569.2924804687500000,4.1975440979003910,55.8707008361816400,55,101,100,79,83,15536,0,0,0,0,2147124544,2147771026,2147575981,2147570084,52,3,13,39152
1353475231,5810,996.7999877929688000,38.2631301879882800,568.8001708984375000,4.2128410339355470,55.8628311157226560,55,98,100,77,83,15538,0,0,0,0,2147124251,2147772269,2147572315,2147570176,5,3,13,30332
1353478831,5809,995.9799804687500000,38.4800300598144500,568.6220703125000000,4.2183718681335450,55.8313102722168000,54,98,100,79,83,15536,0,0,0,0,2147123044,2147772608,2147569883,2147568448,419,3,13,28525
1353482431,5810,995.1900024414062000,39.6438293457031250,568.6787109375000000,4.2166137695312500,55.6560783386230500,55,98,100,79,82,15538,0,0,0,0,2147122733,2147777106,2147576841,2147568466,96,3,13,15458
1353486031,5810,1001.7899780273438000,40.5535697937011700,568.5734252929688000,4.2198848724365230,55.5192909240722660,55,98,100,78,81,15534,0,0,0,0,2147123035,2147776594,2147576576,2147569453,3540,3,13,51217
1353489631,5809,995.5900268554688000,38.4570388793945300,568.8806762695312000,4.2103371620178220,55.8338317871093750,55,100,100,77,83,15536,0,0,0,0,2147122642,2147776722,2147574418,2147569453,259,3,13,3841
1353493231,5811,1000.7700195312500000,40.0981292724609400,568.7329101562500000,4.2149300575256350,55.5850181579589840,54,101,100,77,83,15532,0,0,0,0,2147126144,2147776740,2147573266,2147573366,10,3,13,62271
1353496831,5811,994.4799804687500000,39.3770408630371100,569.2506713867188000,4.1988430023193360,55.6977386474609400,54,97,100,77,82,15534,0,0,0,0,2147124324,2147770331,2147571017,2147569718,59,3,13,42445
1353500431,5809,992.1199951171875000,38.8237800598144500,569.2620239257812000,4.1984920501708980,55.7826995849609400,55,100,100,79,84,15533,0,0,0,0,2147127771,2147769801,2147568795,2147568621,401,3,13,37003
1353504031,5810,994.5900268554688000,39.5883407592773440,569.4733886718750000,4.1919250488281250,55.6683616638183600,55,97,100,78,82,15534,0,0,0,0,2147124507,2147769307,2147575332,2147568749,107,3,13,1641
1353507631,5811,1006.7899780273438000,39.1579208374023440,568.6557006835938000,4.2173271179199220,55.7288703918457000,56,99,101,78,83,15528,0,0,0,0,2147124132,2147771419,2147579126,2147568237,408,3,13,51629
1353511231,5809,1001.5000000000000000,40.1242103576660160,568.6472167968750000,4.2175941467285160,55.5834007263183600,55,100,100,78,81,15531,0,0,0,0,2147122413,2147770139,2147574180,2147568155,210,3,13,61331
1353514831,5811,989.5300292968750000,38.8838882446289060,569.1248168945312000,4.2027549743652340,55.7715187072753900,55,99,101,78,83,15513,0,0,0,0,2147124708,2147766326,2147571657,2147570075,3373,3,13,17313
1353518431,5809,1002.4099731445312000,38.4467010498046900,569.4442138671875000,4.1928329467773440,55.8414001464843750,54,97,100,78,83,15530,0,0,0,0,2147123392,2147767753,2147576128,2147572004,3552,3,13,58141
1353522031,5811,1003.0700073242188000,38.5407981872558600,569.4625244140625000,4.1922650337219240,55.8284606933593750,55,98,101,78,82,15534,0,0,0,0,2147123666,2147765513,2147575707,2147569289,3432,3,13,19769
1353525631,5808,999.2100219726562000,39.2723312377929700,569.1829223632812000,4.2009530067443850,55.7138290405273440,55,98,101,77,82,15531,0,0,0,0,2147126390,2147770477,2147573193,2147568859,62,3,13,50479
1353525955,5811,998.0000000000000000,39.2256088256835940,569.1209716796875000,4.2028732299804690,55.7210197448730500,56,99,101,79,81,15530,0,0,0,0,2147124672,2147770304,2147574189,2147566509,3573,3,13,16131
